weather.gov     
National Weather Service

Miscellaneous Local Product
NWS Homepage
This page is being discontinued on March 12, 2014.
The same data is available at this site. Please update your bookmarks.
Thank you, and we apologize for the inconvenience.
Please send an email to SR-SRH.Webmaster@noaa.gov with any concerns.


Current Version
Previous Version:    01  02  03  04  05  06  07  08  09  10  11  12  13  14  15  16  17  18  19  20  21  22  23  24  25  26  27  28  29  30  
   31  32  33  34  35  36  37  38  39  40  41  42  43  44  45  46  47  48  49  50  51  52  53  54  55  56  57  58  59  60  
[Printable]
208
AXUS43 KLBF 260410
MISLBF


WESTERN AND NORTH CENTRAL NEBRASKA HOURLY WEATHER ROUNDUP
NATIONAL WEATHER SERVICE NORTH PLATTE NE
1100 PM CDT SAT OCT 25 2014

***STATIONS NOT REPORTING VARIABLES SUCH AS SKY/WEATHER OR
PRESSURE ARE PROVIDED BY THE NEBRASKA DEPARTMENT OF
ROADS...RAWS...AND APRS NETWORKS...AND ARE NOT UNDER
NATIONAL WEATHER SERVICE QUALITY CONTROL***

...OBSERVATIONS IN AND NEAR THE EASTERN PANHANDLE OF NEBRASKA...

CITY           SKY/WX    TMP DP  RH WIND       PRES   REMARKS
PINE RIDGE     CLEAR     60  40  47 S14G23    29.89F
CHADRON        LGT RAIN  65  36  34 S13       29.85F
ALLIANCE       CLEAR     44  34  67 SE8       29.95F
SIDNEY         CLEAR     50  35  56 SE9       29.99F
WHITECLAY        N/A     50  36  57 SE15        N/A
RUSHVILLE        N/A     51  38  60 S7          N/A
CRESCENT LAKE    N/A     54  40  59 SE6         N/A
LISCO            N/A     53  38  56 E5          N/A
BIG SPRINGS      N/A     51  40  67 CALM        N/A
LEWELLEN         N/A     48  43  81 CALM        N/A
$$

...OBSERVATIONS IN NORTH CENTRAL NEBRASKA...

CITY           SKY/WX    TMP DP  RH WIND       PRES   REMARKS
VALENTINE      CLEAR     51  35  54 E9        29.96F
THEDFORD       CLEAR     54  42  63 SE5       29.98F
AINSWORTH      CLEAR     46  36  69 E7        29.98F
O`NEILL        CLEAR     53  37  52 E9        30.01F
ORD            CLEAR     47  39  74 CALM      29.99F
BROKEN BOW     CLEAR     55  42  61 SE5       29.99F
BROWNLEE         N/A     55  39  54 SE13        N/A
SPRINGVIEW       N/A     47  38  70 CALM        N/A
BREWSTER         N/A     47  40  77 SE3         N/A
ROSE             N/A     56  40  56 E13         N/A
NEWPORT          N/A     42  35  76 E8          N/A
SARGENT          N/A     53  43  68 CALM        N/A
COMSTOCK         N/A     55  43  62 E6          N/A
CHAMBERS         N/A     51  33  50 E3          N/A
$$

...OBSERVATIONS IN SOUTHWEST NEBRASKA AND FAR NORTHEAST COLORADO...

CITY           SKY/WX    TMP DP  RH WIND       PRES   REMARKS
WRAY           FAIR      57  37  46 CALM      29.96F
HOLYOKE        FAIR      54  43  66 E8        29.96F
IMPERIAL       CLEAR     56  49  77 E9        29.95F
OGALLALA       CLEAR     54  47  76 E6        29.96F
NORTH PLATTE   CLEAR     50  43  77 E8        29.97F
MCCOOK         CLEAR     60  53  77 E9        29.93F
LEXINGTON      CLEAR     57  45  65 E9        29.97F
PAXTON           N/A     55  46  73 CALM        N/A
SUTHERLAND       N/A     51  43  74 E8          N/A
BRADY            N/A     52  43  72 CALM        N/A
GOTHENBURG       N/A     55  42  62 CALM        N/A
CALLAWAY         N/A     57  45  65 E9          N/A
$$

...SOME WEATHER OBSERVATIONS FROM AROUND THE REGION...

CITY           SKY/WX    TMP DP  RH WIND       PRES   REMARKS
DENVER         CLEAR     58  25  28 SW13      30.01F
LARAMIE        CLEAR     47  20  34 S16       30.09F
CHEYENNE       PTCLDY    52  23  32 W6        30.05F
SCOTTSBLUFF    CLEAR     50  38  63 E9        29.95F
RAPID CITY     CLEAR     45  36  70 SE8       29.87F
PIERRE         CLEAR     47  34  60 E9        29.94F
WINNER         FAIR      52  33  48 SE10      29.97F
SIOUX FALLS    CLEAR     45  35  68 NE5       30.04F
OMAHA          CLEAR     60  38  43 E7        30.03F
GRAND ISLAND   CLEAR     56  44  64 E7        29.99F
KANSAS CITY    CLEAR     67  50  54 E10       30.00S
WICHITA        CLEAR     69  59  70 S9        29.94F
HAYS           CLEAR     63  50  63 SE5       29.91F
LIBERAL        CLEAR     66  45  45 S10       29.98F
GOODLAND       CLEAR     48  39  71 NW7       29.95F
$$




U.S. Dept. of Commerce
NOAA National Weather Service
1325 East West Highway
Silver Spring, MD 20910
E-mail: w-nws.webmaster@noaa.gov
Page last modified: May 16, 2007
NATIONAL WEATHER SERVICE: for Safety, for Work, for Fun - FOR LIFE